Weather History for Oelwein, IA

Change the Weather History Date:

Friday, February 22, 2013

  Actual Average Record
Temperature  
Mean Temperature 26 °F -  
Max Temperature 30 °F 35 °F 60 °F (1984)
Min Temperature 23 °F 18 °F -11 °F (1963)
Degree Days  
Heating Degree Days 38    
Moisture  
Dew Point 23 °F    
Average Humidity 85    
Maximum Humidity 93    
Minimum Humidity 74    
Precipitation  
Precipitation 0.06 in - - ()
Sea Level Pressure  
Sea Level Pressure 29.83 in    
Wind  
Wind Speed 11 mph (North)    
Max Wind Speed 16 mph    
Max Gust Speed 21 mph    
Visibility 6 miles    
Events Rain , Snow    
Averages and records for this station are not official NWS values.
T = Trace of Precipitation, MM = Missing Value Source: NWS Daily Summary

Daily Weather History Graph

Daily Weather History Graph

Search for Another Location

Airport:

Trip Planner

Search our weather history database for the weather conditions in past years. The results will help you decide how hot, cold, wet, or windy it might be!

Date:

Astronomy

Feb. 22, 2013 Rise Set
Actual Time 6:54 AM CST 5:49 PM CST
Civil Twilight 6:25 AM CST 6:17 PM CST
Nautical Twilight 5:52 AM CST 6:50 PM CST
Astronomical Twilight 5:20 AM CST 7:23 PM CST
Moon 2:58 PM CST (2/22) 4:42 AM CST (2/22)
Length of Visible Light 11h 52m
Length of Day
10h 54m
Waxing Gibbous, 90% of the Moon is Illuminated
Feb 22
Waxing Gibbous
Feb 25
Full
Mar 4
Last Quarter
Mar 11
New
Mar 19
First Quarter

Hourly Weather History & Observations

Time (CST) Temp. Windchill Dew Point Humidity Pressure Visibility Wind Dir Wind Speed Gust Speed Precip Events Conditions
12:15 AM 26.6 °F 14.7 °F 23.0 °F 86% 29.89 in 1.8 mi ENE 15.0 mph - N/A Snow Light Snow
12:55 AM 26.6 °F 14.3 °F 23.0 °F 86% 29.87 in 2.5 mi ENE 16.1 mph - N/A Snow Light Snow
1:15 AM 26.6 °F 15.2 °F 23.0 °F 86% 29.86 in 0.8 mi ENE 13.8 mph - N/A Snow Heavy Snow
1:35 AM 26.6 °F 14.7 °F 24.8 °F 93% 29.86 in 1.5 mi ENE 15.0 mph 19.6 mph N/A Snow Light Snow
1:55 AM 26.6 °F 15.2 °F 23.0 °F 86% 29.85 in 1.0 mi East 13.8 mph - N/A Snow Snow
2:15 AM 26.6 °F 15.2 °F 23.0 °F 86% 29.84 in 1.8 mi ENE 13.8 mph - N/A Snow Light Snow
2:55 AM 26.6 °F 14.7 °F 23.0 °F 86% 29.82 in 3.0 mi East 15.0 mph - N/A Snow Light Snow
3:15 AM 26.6 °F 14.7 °F 23.0 °F 86% 29.81 in 10.0 mi East 15.0 mph - N/A Snow Light Snow
3:35 AM 26.6 °F 14.7 °F 23.0 °F 86% 29.79 in 7.0 mi East 15.0 mph - N/A Snow Light Snow
3:55 AM 26.6 °F 16.2 °F 23.0 °F 86% 29.79 in 7.0 mi East 11.5 mph 15.0 mph N/A Snow Light Snow
4:15 AM 26.6 °F 15.7 °F 23.0 °F 86% 29.78 in 10.0 mi East 12.7 mph - N/A   Mostly Cloudy
4:35 AM 26.6 °F 15.7 °F 23.0 °F 86% 29.78 in 10.0 mi East 12.7 mph - N/A   Mostly Cloudy
4:55 AM 26.6 °F 15.2 °F 23.0 °F 86% 29.78 in 10.0 mi East 13.8 mph 20.7 mph N/A   Overcast
5:15 AM 26.6 °F 16.2 °F 23.0 °F 86% 29.77 in 5.0 mi East 11.5 mph - N/A Snow Light Snow
5:35 AM 26.6 °F 16.2 °F 23.0 °F 86% 29.78 in 5.0 mi East 11.5 mph - N/A   Overcast
5:55 AM 26.6 °F 15.7 °F 24.8 °F 93% 29.77 in 7.0 mi East 12.7 mph - N/A   Overcast
6:15 AM 26.6 °F 16.8 °F 24.8 °F 93% 29.77 in 7.0 mi East 10.4 mph 17.3 mph N/A Snow Light Snow
6:35 AM 26.6 °F 17.5 °F 24.8 °F 93% 29.77 in 5.0 mi East 9.2 mph - N/A Snow Light Snow
6:55 AM 26.6 °F 18.2 °F 24.8 °F 93% 29.77 in 2.5 mi ENE 8.1 mph - N/A Snow Light Snow
7:15 AM 26.6 °F 18.2 °F 24.8 °F 93% 29.77 in 1.5 mi East 8.1 mph - N/A Snow Light Snow
7:35 AM 26.6 °F 20.0 °F 24.8 °F 93% 29.78 in 1.5 mi ENE 5.8 mph - N/A Snow Light Snow
7:55 AM 26.6 °F 21.2 °F 24.8 °F 93% 29.78 in 1.2 mi ENE 4.6 mph - N/A Snow Light Snow
8:15 AM 26.6 °F - 24.8 °F 93% 29.79 in 1.5 mi Calm Calm - N/A Snow Light Snow
8:35 AM 26.6 °F 21.2 °F 24.8 °F 93% 29.79 in 1.2 mi ENE 4.6 mph - N/A Snow Light Snow
8:55 AM 26.6 °F 21.2 °F 24.8 °F 93% 29.79 in 1.5 mi ENE 4.6 mph - N/A Snow Light Snow
9:15 AM 26.6 °F 20.0 °F 24.8 °F 93% 29.79 in 3.0 mi ENE 5.8 mph - N/A Snow Light Snow
9:35 AM 28.4 °F 22.2 °F 24.8 °F 86% 29.79 in 2.5 mi ENE 5.8 mph - N/A Snow Light Snow
9:55 AM 28.4 °F 21.2 °F 24.8 °F 86% 29.78 in 4.0 mi NE 6.9 mph - N/A Snow Light Snow
10:15 AM 28.4 °F 21.2 °F 24.8 °F 86% 29.78 in 4.0 mi ENE 6.9 mph - N/A Snow Light Snow
10:35 AM 28.4 °F 21.2 °F 24.8 °F 86% 29.78 in 5.0 mi ENE 6.9 mph - N/A   Mostly Cloudy
11:15 AM 28.4 °F - 23.0 °F 80% 29.80 in 4.0 mi Calm Calm - 0.05 in Snow Light Snow
11:35 AM 28.4 °F - 23.0 °F 80% 29.81 in 4.0 mi Calm Calm - 0.06 in Rain Light Freezing Rain
11:55 AM 28.4 °F - 24.8 °F 86% 29.81 in 1.8 mi Calm Calm - 0.06 in Snow Light Snow
12:15 PM 28.4 °F - 24.8 °F 86% 29.82 in 2.0 mi Calm Calm - N/A Snow Light Snow
12:35 PM 28.4 °F - 24.8 °F 86% 29.81 in 3.0 mi Calm Calm - N/A Snow Light Snow
1:15 PM 30.2 °F - 24.8 °F 80% 29.80 in 5.0 mi Calm Calm - N/A Snow Light Snow
1:35 PM 30.2 °F - 26.6 °F 86% 29.80 in 5.0 mi Calm Calm - N/A Snow Light Snow
1:55 PM 30.2 °F - 26.6 °F 86% 29.80 in 4.0 mi Calm Calm - N/A Snow Light Snow
2:15 PM 30.2 °F 22.6 °F 24.8 °F 80% 29.80 in 5.0 mi WNW 8.1 mph - N/A   Haze
2:35 PM 30.2 °F 21.9 °F 24.8 °F 80% 29.80 in 5.0 mi WNW 9.2 mph - N/A   Haze
2:55 PM 30.2 °F 22.6 °F 24.8 °F 80% 29.81 in 10.0 mi WNW 8.1 mph - N/A   Clear
3:15 PM 30.2 °F 23.4 °F 24.8 °F 80% 29.82 in 7.0 mi WNW 6.9 mph - N/A   Clear
3:35 PM 30.2 °F 21.3 °F 23.0 °F 75% 29.83 in 10.0 mi WNW 10.4 mph - N/A   Clear
3:55 PM 30.2 °F 20.8 °F 24.8 °F 80% 29.83 in 10.0 mi West 11.5 mph - N/A   Clear
4:15 PM 30.2 °F 19.8 °F 23.0 °F 75% 29.84 in 10.0 mi West 13.8 mph - N/A   Clear
4:35 PM 30.2 °F 20.8 °F 23.0 °F 75% 29.84 in 10.0 mi West 11.5 mph - N/A   Clear
4:55 PM 28.4 °F 16.6 °F 23.0 °F 80% 29.85 in 10.0 mi WNW 16.1 mph - N/A   Scattered Clouds
5:15 PM 28.4 °F 18.0 °F 23.0 °F 80% 29.85 in 10.0 mi West 12.7 mph - N/A Snow Light Snow
5:35 PM 28.4 °F 17.0 °F 23.0 °F 80% 29.86 in 10.0 mi WNW 15.0 mph - N/A   Mostly Cloudy
5:55 PM 28.4 °F 17.5 °F 21.2 °F 74% 29.87 in 10.0 mi WNW 13.8 mph - N/A   Scattered Clouds
6:15 PM 28.4 °F 18.0 °F 21.2 °F 74% 29.87 in 10.0 mi WNW 12.7 mph - N/A   Scattered Clouds
6:35 PM 26.6 °F 15.2 °F 21.2 °F 80% 29.88 in 10.0 mi WNW 13.8 mph - N/A Snow Light Snow
6:55 PM 26.6 °F 15.7 °F 21.2 °F 80% 29.88 in 10.0 mi West 12.7 mph - N/A   Clear
7:15 PM 26.6 °F 16.2 °F 21.2 °F 80% 29.89 in 10.0 mi West 11.5 mph - N/A   Clear
7:35 PM 26.6 °F 16.8 °F 21.2 °F 80% 29.89 in 10.0 mi West 10.4 mph - N/A   Clear
7:55 PM 26.6 °F 15.7 °F 21.2 °F 80% 29.89 in 10.0 mi WNW 12.7 mph 17.3 mph N/A   Clear
8:15 PM 26.6 °F 15.7 °F 21.2 °F 80% 29.89 in 10.0 mi West 12.7 mph - N/A   Scattered Clouds
8:35 PM 26.6 °F 16.2 °F 21.2 °F 80% 29.89 in 10.0 mi West 11.5 mph 16.1 mph N/A   Clear
8:55 PM 24.8 °F 16.1 °F 21.2 °F 86% 29.89 in 10.0 mi West 8.1 mph - N/A   Clear
9:15 PM 24.8 °F 16.1 °F 21.2 °F 86% 29.90 in 10.0 mi West 8.1 mph - N/A   Clear
9:35 PM 23.0 °F 13.9 °F 19.4 °F 86% 29.90 in 10.0 mi West 8.1 mph - N/A   Clear
9:55 PM 23.0 °F 13.9 °F 19.4 °F 86% 29.89 in 10.0 mi West 8.1 mph - N/A   Scattered Clouds
10:15 PM 23.0 °F 13.1 °F 19.4 °F 86% 29.89 in 10.0 mi West 9.2 mph - N/A   Clear
10:35 PM 23.0 °F 13.9 °F 19.4 °F 86% 29.89 in 10.0 mi West 8.1 mph - N/A   Clear
10:55 PM 23.0 °F 13.9 °F 19.4 °F 86% 29.89 in 10.0 mi West 8.1 mph - N/A   Scattered Clouds
11:15 PM 23.0 °F 13.1 °F 19.4 °F 86% 29.90 in 10.0 mi WSW 9.2 mph - N/A Snow Light Snow
11:55 PM 23.0 °F 13.1 °F 19.4 °F 86% 29.89 in 10.0 mi WSW 9.2 mph - N/A   Mostly Cloudy